QPF
0.00 0.00 0.00 0.00 0.00 0.00 0.00 0.00 0.00 0.00 0.00 0.01 0.00 0.00 0.00 0.00 0.00 0.00 0.00 0.00 0.00 0.00 0.00 0.00 0.00 0.00 0.00 0.00 0.00 0.00 0.00 0.00 0.00 0.00 0.00 0.00 0.00 0.01 0.00 0.00 0.00 0.00 0.00
0.00 0.00 0.00 0.00 0.00 0.00 0.00 0.00 0.00 0.00 0.00 0.05 0.07 0.01 0.00 0.00 0.00 0.00 0.00 0.00 0.00 0.00 0.00 0.00 0.00 0.00 0.00 0.00 0.00 0.00 0.00 0.00 0.00 0.00 0.00 0.00 0.00 0.00 0.00 0.00 0.00 0.00 0.00
0.00 0.00 0.00 0.00 0.00 0.00 0.00 0.00 0.00 0.00 0.03 0.07 0.03 0.06 0.06 0.00 0.00 0.00 0.00 0.00 0.00 0.00 0.00 0.00 0.00 0.00 0.00 0.00 0.00 0.00 0.00 0.00 0.00 0.00 0.00 0.00 0.00 0.00 0.02 0.01 0.00 0.00 0.00
0.00 0.00 0.00 0.00 0.00 0.00 0.00 0.01 0.01 0.01 0.01 0.07 0.10 0.12 0.03 0.00 0.00 0.00 0.00 0.00 0.00 0.00 0.00 0.00 0.00 0.00 0.00 0.00 0.00 0.00 0.00 0.00 0.00 0.00 0.00 0.00 0.01 0.03 0.06 0.01 0.01 0.01 0.00
0.00 0.00 0.00 0.00 0.00 0.00 0.00 0.01 0.01 0.01 0.12 0.11 0.00 0.00 0.00 0.00 0.00 0.00 0.00 0.00 0.00 0.00 0.00 0.00 0.00 0.00 0.00 0.00 0.00 0.00 0.00 0.00 0.00 0.01 0.00 0.00 0.00 0.00 0.00 0.01 0.02 0.01 0.00
0.00 0.00 0.00 0.00 0.00 0.00 0.00 0.00 0.01 0.01 0.02 0.00 0.00 0.00 0.00 0.00 0.00 0.00 0.00 0.00 0.00 0.00 0.00 0.00 0.00 0.00 0.00 0.00 0.00 0.00 0.00 0.00 0.03 0.02 0.00 0.00 0.01 0.01 0.06 0.05 0.04 0.03 0.02
0.00 0.00 0.00 0.00 0.00 0.00 0.00 0.00 0.00 0.00 0.00 0.00 0.00 0.00 0.00 0.00 0.00 0.00 0.00 0.00 0.00 0.00 0.00 0.00 0.00 0.00 0.00 0.00 0.00 0.00 0.00 0.00 0.02 0.00 0.00 0.00 0.06 0.12 0.19 0.07 0.04 0.04 0.05
0.00 0.00 0.00 0.00 0.00 0.00 0.00 0.00 0.00 0.00 0.00 0.00 0.00 0.00 0.00 0.00 0.00 0.00 0.00 0.00 0.00 0.00 0.00 0.00 0.00 0.00 0.00 0.00 0.00 0.00 0.00 0.00 0.00 0.00 0.00 0.03 0.25 0.28 0.24 0.19 0.11 0.11 0.14
0.00 0.00 0.00 0.00 0.00 0.00 0.00 0.00 0.00 0.00 0.00 0.00 0.00 0.00 0.00 0.00 0.00 0.00 0.00 0.00 0.00 0.00 0.00 0.00 0.00 0.00 0.00 0.00 0.00 0.00 0.00 0.00 0.00 0.00 0.00 0.11 0.29 0.29 0.20 0.15 0.09 0.08 0.06
0.00 0.00 0.00 0.00 0.00 0.00 0.00 0.00 0.00 0.00 0.00 0.00 0.00 0.00 0.00 0.00 0.00 0.00 0.00 0.00 0.00 0.00 0.00 0.00 0.00 0.00 0.00 0.00 0.00 0.00 0.00 0.00 0.00 0.00 0.01 0.13 0.17 0.16 0.19 0.14 0.07 0.04 0.03
0.00 0.00 0.00 0.00 0.00 0.00 0.00 0.00 0.00 0.00 0.00 0.00 0.00 0.00 0.00 0.00 0.00 0.00 0.00 0.00 0.00 0.00 0.00 0.00 0.00 0.00 0.00 0.00 0.00 0.00 0.00 0.00 0.00 0.00 0.01 0.10 0.24 0.11 0.12 0.11 0.06 0.07 0.10
0.00 0.00 0.00 0.00 0.00 0.00 0.00 0.00 0.00 0.00 0.00 0.00 0.00 0.00 0.01 0.01 0.00 0.00 0.00 0.00 0.00 0.00 0.00 0.00 0.00 0.00 0.00 0.00 0.00 0.00 0.00 0.00 0.00 0.00 0.00 0.02 0.11 0.06 0.09 0.12 0.12 0.16 0.14
0.00 0.00 0.00 0.00 0.00 0.00 0.01 0.01 0.01 0.00 0.01 0.00 0.01 0.03 0.05 0.02 0.00 0.00 0.00 0.00 0.00 0.00 0.00 0.00 0.00 0.00 0.00 0.00 0.00 0.00 0.00 0.00 0.00 0.00 0.00 0.00 0.02 0.02 0.08 0.15 0.06 0.08 0.11
0.00 0.00 0.00 0.00 0.00 0.01 0.02 0.01 0.03 0.01 0.01 0.01 0.04 0.04 0.05 0.04 0.00 0.00 0.00 0.00 0.00 0.00 0.00 0.00 0.00 0.00 0.00 0.00 0.00 0.00 0.00 0.00 0.00 0.00 0.00 0.00 0.00 0.01 0.02 0.03 0.10 0.23 0.32
0.00 0.00 0.00 0.00 0.01 0.01 0.02 0.02 0.02 0.01 0.03 0.04 0.03 0.04 0.04 0.03 0.00 0.00 0.00 0.00 0.00 0.00 0.00 0.00 0.00 0.00 0.00 0.00 0.00 0.00 0.00 0.00 0.00 0.00 0.00 0.00 0.00 0.00 0.00 0.00 0.00 0.00 0.02
0.00 0.00 0.00 0.01 0.02 0.03 0.02 0.01 0.01 0.02 0.04 0.05 0.04 0.01 0.00 0.00 0.00 0.00 0.00 0.00 0.00 0.00 0.00 0.00 0.00 0.00 0.00 0.00 0.00 0.00 0.00 0.00 0.00 0.00 0.00 0.00 0.00 0.00 0.00 0.00 0.00 0.00 0.00
0.00 0.00 0.00 0.00 0.00 0.00 0.00 0.01 0.01 0.01 0.01 0.00 0.00 0.00 0.00 0.00 0.00 0.00 0.00 0.00 0.00 0.00 0.00 0.00 0.00 0.00 0.00 0.00 0.00 0.00 0.00 0.00 0.00 0.00 0.00 0.00 0.00 0.00 0.00 0.00 0.00 0.00 0.00
0.00 0.00 0.00 0.00 0.00 0.00 0.00 0.01 0.01 0.00 0.00 0.00 0.00 0.00 0.00 0.00 0.00 0.00 0.00 0.00 0.00 0.00 0.00 0.00 0.00 0.00 0.00 0.00 0.00 0.00 0.00 0.00 0.00 0.00 0.00 0.00 0.00 0.00 0.00 0.00 0.00 0.00 0.00
0.00 0.00 0.00 0.00 0.00 0.00 0.00 0.01 0.01 0.02 0.00 0.00 0.00 0.00 0.00 0.00 0.00 0.00 0.00 0.00 0.00 0.00 0.00 0.00 0.00 0.00 0.00 0.00 0.00 0.00 0.00 0.00 0.00 0.00 0.00 0.00 0.00 0.00 0.00 0.00 0.00 0.00 0.00
0.00 0.00 0.00 0.00 0.00 0.00 0.00 0.01 0.04 0.03 0.00 0.00 0.00 0.00 0.00 0.00 0.00 0.00 0.00 0.00 0.00 0.00 0.00 0.00 0.00 0.00 0.00 0.00 0.00 0.00 0.00 0.00 0.00 0.00 0.00 0.00 0.00 0.00 0.00 0.00 0.00 0.00 0.00
0.00 0.00 0.00 0.00 0.00 0.00 0.00 0.00 0.02 0.05 0.01 0.00 0.00 0.00 0.00 0.00 0.00 0.00 0.00 0.00 0.00 0.00 0.00 0.00 0.00 0.00 0.00 0.00 0.00 0.00 0.00 0.00 0.00 0.00 0.00 0.00 0.00 0.00 0.00 0.00 0.00 0.00 0.00
0.00 0.00 0.00 0.00 0.00 0.00 0.00 0.00 0.00 0.02 0.01 0.00 0.00 0.00 0.00 0.00 0.00 0.00 0.00 0.00 0.00 0.00 0.00 0.00 0.00 0.00 0.00 0.00 0.00 0.00 0.00 0.00 0.00 0.00 0.00 0.00 0.00 0.00 0.00 0.00 0.00 0.00 0.00
0.00 0.00 0.00 0.00 0.00 0.00 0.00 0.01 0.02 0.03 0.02 0.00 0.00 0.00 0.00 0.00 0.00 0.00 0.00 0.00 0.00 0.00 0.00 0.00 0.00 0.00 0.00 0.00 0.00 0.00 0.00 0.00 0.00 0.00 0.00 0.00 0.00 0.00 0.00 0.00 0.00 0.00 0.00
0.00 0.00 0.00 0.00 0.00 0.00 0.01 0.01 0.01 0.02 0.00 0.00 0.00 0.00 0.00 0.00 0.00 0.00 0.00 0.00 0.00 0.00 0.00 0.00 0.00 0.00 0.00 0.00 0.00 0.00 0.00 0.00 0.00 0.00 0.00 0.00 0.00 0.00 0.00 0.00 0.00 0.00 0.00
0.00 0.00 0.00 0.00 0.00 0.01 0.03 0.02 0.01 0.00 0.01 0.00 0.00 0.00 0.00 0.00 0.00 0.00 0.00 0.00 0.00 0.00 0.00 0.00 0.00 0.00 0.00 0.00 0.00 0.00 0.00 0.00 0.00 0.00 0.00 0.00 0.00 0.00 0.00 0.00 0.00 0.00 0.00
0.00 0.00 0.00 0.00 0.00 0.02 0.06 0.06 0.03 0.00 0.00 0.00 0.00 0.00 0.00 0.00 0.00 0.00 0.00 0.00 0.00 0.00 0.00 0.00 0.00 0.00 0.00 0.00 0.00 0.00 0.00 0.00 0.00 0.00 0.00 0.00 0.00 0.00 0.00 0.00 0.00 0.00 0.00
MSLP
1006.75 1007.42 1008.19 1008.71 1009.31 1009.85 1010.22 1010.27 1010.59 1011.01 1011.75 1012.95 1013.88 1014.24 1013.91 1014.48 1014.57 1014.57 1014.49 1014.54 1014.78 1015.25 1015.57 1015.64 1015.65 1015.76 1015.44 1015.29 1014.87 1014.03 1013.11 1012.62 1011.63 1010.73 1010.51 1009.61 1009.25 1009.10 1009.05 1008.02 1007.69 1007.06 1006.51
1005.75 1006.63 1007.24 1007.81 1008.47 1009.07 1009.53 1009.87 1010.20 1010.65 1011.55 1012.29 1012.91 1012.71 1013.67 1014.19 1014.31 1014.05 1013.99 1013.97 1014.39 1014.81 1015.06 1015.16 1015.25 1015.27 1015.15 1014.85 1014.28 1014.09 1013.71 1012.91 1012.12 1010.95 1010.53 1009.34 1009.17 1009.25 1008.63 1007.69 1006.65 1005.90 1005.39
1005.05 1005.97 1006.70 1007.24 1007.79 1008.35 1008.77 1009.30 1009.72 1010.25 1011.31 1012.31 1013.02 1013.75 1014.22 1014.09 1013.95 1013.55 1013.68 1013.93 1014.41 1014.59 1014.85 1015.05 1014.92 1014.90 1014.76 1014.44 1014.37 1014.08 1013.53 1013.03 1012.42 1011.43 1010.13 1009.49 1009.31 1009.04 1007.90 1007.05 1006.06 1005.08 1004.52
1004.24 1005.26 1006.08 1006.65 1007.13 1007.78 1008.35 1008.95 1009.45 1010.05 1011.00 1011.79 1012.45 1013.23 1013.65 1013.53 1013.28 1013.01 1013.26 1013.86 1014.20 1014.51 1014.73 1014.87 1014.81 1014.66 1014.57 1014.60 1014.29 1014.01 1013.37 1013.21 1012.32 1011.31 1010.33 1009.71 1009.20 1008.46 1007.66 1006.52 1005.07 1004.49 1003.71
1003.61 1004.60 1005.40 1006.09 1006.63 1007.23 1007.97 1008.76 1009.37 1009.96 1010.61 1011.23 1011.87 1012.19 1012.66 1012.57 1012.36 1012.74 1013.33 1013.77 1014.06 1014.42 1014.73 1014.69 1014.33 1014.45 1014.31 1014.53 1014.31 1014.00 1013.97 1013.22 1012.32 1011.60 1010.62 1009.95 1008.93 1007.92 1007.27 1005.94 1004.97 1003.66 1003.03
1003.43 1004.20 1004.93 1005.59 1006.15 1006.87 1007.73 1008.36 1009.07 1010.13 1010.88 1011.18 1011.36 1011.50 1011.70 1011.59 1012.19 1012.90 1013.44 1013.68 1014.07 1014.32 1014.42 1014.39 1014.42 1014.20 1013.92 1014.02 1014.19 1014.08 1014.05 1013.15 1012.35 1011.75 1011.06 1009.93 1008.92 1007.97 1006.43 1005.08 1003.69 1002.76 1002.31
1003.26 1004.09 1004.65 1005.34 1006.11 1006.95 1007.68 1008.53 1009.19 1010.04 1010.59 1010.88 1011.05 1011.50 1011.93 1011.99 1012.88 1013.48 1013.73 1014.01 1014.01 1013.79 1013.98 1014.13 1014.23 1014.01 1014.07 1014.17 1014.10 1013.89 1013.03 1012.42 1012.07 1011.96 1011.37 1010.31 1008.94 1007.76 1006.25 1004.10 1002.67 1002.29 1001.93
1003.12 1003.77 1004.42 1005.43 1006.25 1007.02 1007.75 1008.40 1009.05 1009.60 1010.03 1010.73 1011.02 1011.18 1011.17 1011.99 1012.99 1013.45 1013.78 1014.01 1013.94 1013.85 1013.77 1014.09 1014.15 1014.29 1014.46 1014.56 1014.40 1013.66 1012.75 1012.09 1011.75 1011.72 1011.54 1010.71 1009.27 1007.71 1006.12 1003.71 1002.61 1002.19 1001.72
1002.83 1003.86 1004.91 1005.57 1006.17 1006.87 1007.36 1007.85 1008.53 1009.28 1009.71 1009.67 1010.54 1011.34 1012.00 1012.29 1012.95 1013.40 1014.03 1013.59 1013.43 1013.39 1013.51 1013.62 1013.73 1013.94 1014.79 1014.67 1014.42 1013.67 1012.75 1011.93 1011.46 1011.17 1010.90 1010.54 1009.03 1007.70 1006.18 1004.35 1002.93 1002.27 1001.63
1003.07 1004.13 1005.07 1005.58 1005.93 1006.56 1007.07 1007.51 1007.88 1008.25 1008.68 1009.98 1010.78 1010.91 1011.34 1012.13 1013.10 1013.70 1014.11 1013.55 1013.06 1013.11 1013.22 1013.05 1013.90 1014.52 1014.96 1014.72 1014.47 1013.81 1012.99 1012.27 1011.71 1010.97 1010.36 1010.37 1009.20 1008.03 1006.62 1005.47 1004.36 1003.23 1002.32
1003.35 1004.45 1005.37 1005.81 1006.12 1006.91 1007.58 1008.17 1009.18 1009.70 1009.54 1009.25 1010.43 1010.57 1011.48 1012.41 1013.37 1014.05 1014.47 1014.23 1013.55 1013.46 1013.14 1012.81 1013.54 1014.46 1014.47 1014.39 1014.44 1013.94 1013.49 1012.74 1011.84 1010.37 1010.16 1010.25 1009.53 1008.71 1007.49 1006.34 1005.35 1004.31 1003.54
1004.32 1004.91 1005.42 1006.27 1006.61 1006.46 1007.96 1009.24 1009.75 1010.37 1010.80 1010.59 1010.56 1010.71 1011.00 1012.81 1013.47 1014.24 1014.79 1014.61 1014.75 1014.35 1013.67 1013.29 1013.73 1014.29 1014.38 1014.08 1014.15 1013.81 1013.05 1012.35 1011.29 1010.16 1009.96 1009.99 1009.75 1009.21 1008.41 1007.43 1006.32 1005.36 1004.58
1004.33 1005.08 1006.20 1005.15 1007.59 1008.09 1008.23 1009.07 1009.89 1010.52 1010.75 1010.53 1011.30 1011.43 1011.76 1012.56 1013.46 1014.44 1014.97 1014.89 1014.80 1014.43 1014.14 1014.03 1013.90 1014.07 1013.98 1013.62 1013.68 1013.42 1012.85 1012.41 1011.50 1010.39 1009.91 1009.89 1009.49 1009.04 1008.50 1007.85 1007.05 1006.03 1005.18
1004.35 1005.12 1006.39 1006.65 1007.62 1007.93 1008.18 1008.75 1008.77 1009.97 1010.36 1010.82 1010.92 1011.33 1012.09 1012.67 1012.73 1013.97 1014.52 1014.49 1014.49 1014.32 1014.09 1013.57 1013.43 1013.69 1013.64 1013.73 1013.23 1012.99 1012.97 1012.66 1012.00 1011.09 1010.61 1010.05 1009.55 1008.87 1008.20 1007.78 1007.55 1006.97 1006.06
1005.18 1005.57 1006.42 1007.17 1007.91 1008.60 1009.75 1010.72 1010.48 1010.52 1011.22 1010.81 1010.71 1010.99 1012.05 1012.55 1013.67 1013.73 1013.63 1013.74 1014.33 1014.50 1014.43 1013.21 1013.08 1013.23 1013.32 1013.38 1013.41 1013.25 1013.29 1013.02 1012.29 1011.41 1011.08 1010.58 1010.15 1009.63 1008.65 1007.92 1007.03 1007.06 1007.62
1005.52 1005.94 1006.78 1007.60 1008.37 1009.11 1010.01 1010.46 1011.10 1011.34 1011.21 1011.05 1011.77 1011.31 1012.52 1012.93 1013.75 1014.17 1014.64 1015.04 1015.00 1014.73 1014.10 1013.48 1013.50 1013.62 1013.66 1013.74 1013.63 1013.49 1013.50 1013.31 1012.87 1012.18 1011.60 1011.02 1010.10 1009.85 1009.31 1008.69 1007.97 1007.07 1007.16
1005.10 1005.93 1006.41 1007.24 1008.17 1008.36 1008.72 1009.94 1010.61 1011.89 1011.97 1011.82 1012.19 1012.43 1012.92 1013.76 1014.33 1014.65 1015.00 1015.12 1014.76 1014.66 1013.89 1013.95 1014.12 1014.15 1014.15 1014.17 1014.07 1013.85 1013.73 1013.71 1013.15 1012.62 1012.12 1011.52 1010.92 1010.09 1009.74 1009.39 1008.90 1008.41 1007.73
1005.70 1006.68 1006.37 1007.41 1007.39 1008.28 1008.55 1009.14 1010.07 1010.69 1011.41 1012.83 1013.21 1013.63 1013.65 1014.24 1014.61 1014.91 1015.27 1015.03 1014.23 1013.96 1014.31 1014.56 1014.62 1014.71 1014.73 1014.67 1014.69 1014.52 1014.28 1014.07 1013.63 1013.19 1012.80 1012.22 1011.54 1010.97 1010.24 1009.61 1009.67 1009.47 1009.06
1006.02 1006.53 1006.42 1006.19 1006.43 1007.39 1008.16 1008.75 1008.85 1009.73 1010.59 1011.99 1013.06 1014.31 1014.44 1014.73 1014.94 1015.12 1015.15 1014.15 1013.85 1014.10 1014.56 1014.81 1015.11 1015.19 1015.28 1015.17 1015.24 1015.10 1014.92 1014.81 1014.52 1014.05 1013.72 1013.27 1012.88 1012.03 1011.10 1010.51 1010.02 1009.84 1009.59
1006.19 1006.44 1006.09 1006.48 1007.16 1007.35 1007.63 1008.36 1009.11 1009.71 1010.59 1011.21 1012.07 1013.06 1014.10 1014.57 1014.29 1014.19 1013.92 1014.03 1014.30 1014.73 1015.12 1015.18 1015.29 1015.61 1015.59 1015.60 1015.43 1015.17 1014.92 1014.85 1014.68 1014.23 1013.76 1013.33 1012.81 1012.41 1012.24 1011.67 1011.10 1010.67 1009.93
1005.90 1006.65 1006.47 1006.41 1006.56 1006.95 1007.64 1008.02 1009.03 1009.92 1010.12 1010.38 1011.09 1012.17 1013.27 1013.03 1013.24 1013.60 1013.67 1014.26 1014.69 1015.17 1015.59 1015.65 1015.46 1015.67 1015.57 1015.71 1015.76 1015.32 1015.15 1015.11 1015.07 1014.75 1014.29 1013.69 1013.29 1012.59 1012.28 1011.99 1011.85 1011.70 1011.41
1005.35 1005.67 1006.24 1005.66 1005.91 1007.05 1007.26 1007.81 1008.56 1009.19 1009.54 1009.80 1010.60 1012.39 1013.30 1013.04 1013.45 1013.65 1013.91 1014.52 1015.15 1015.67 1015.90 1016.13 1015.91 1016.00 1016.12 1016.19 1016.16 1016.02 1015.73 1015.69 1015.62 1015.39 1014.87 1014.19 1013.77 1013.23 1012.79 1012.45 1012.17 1011.95 1012.20
1005.37 1005.44 1005.50 1005.99 1005.92 1006.76 1007.15 1007.58 1008.10 1008.49 1009.07 1009.66 1011.00 1012.43 1012.93 1013.30 1013.65 1013.50 1013.98 1014.61 1015.31 1015.79 1016.11 1016.17 1016.16 1016.32 1016.39 1016.51 1016.53 1016.83 1016.85 1016.81 1016.43 1015.95 1015.43 1014.73 1014.21 1014.16 1013.32 1012.95 1012.88 1012.55 1012.49
1005.38 1005.51 1005.55 1005.62 1005.99 1006.52 1007.60 1007.79 1008.61 1009.03 1009.13 1010.02 1010.99 1011.93 1012.61 1013.85 1014.29 1014.19 1014.26 1014.81 1015.39 1015.81 1016.13 1016.50 1016.81 1016.98 1017.00 1016.98 1017.26 1017.59 1018.23 1018.36 1017.53 1016.56 1016.33 1015.24 1014.75 1014.35 1013.84 1013.70 1013.41 1013.33 1012.97
1005.31 1005.79 1005.81 1006.01 1006.48 1007.19 1007.94 1008.14 1008.49 1009.00 1009.60 1010.19 1010.91 1012.32 1013.48 1014.27 1014.15 1013.99 1014.43 1015.15 1015.48 1015.77 1016.15 1016.41 1016.83 1017.39 1017.87 1018.12 1018.45 1018.73 1019.29 1018.97 1018.38 1018.27 1016.71 1015.43 1015.13 1014.95 1014.61 1014.23 1013.86 1013.88 1013.78
1006.14 1006.69 1007.00 1007.24 1007.40 1007.81 1008.40 1008.41 1008.81 1009.13 1010.17 1010.91 1011.55 1012.18 1013.23 1013.79 1014.04 1013.87 1014.56 1015.02 1015.36 1015.79 1016.26 1016.79 1017.33 1017.57 1017.89 1018.59 1019.29 1019.65 1019.47 1019.16 1018.67 1018.35 1017.64 1015.75 1015.47 1015.63 1015.10 1014.82 1014.53 1014.21 1014.25
Thickness
5859 5853 5846 5841 5835 5829 5824 5821 5816 5812 5802 5786 5776 5769 5770 5758 5753 5746 5741 5734 5725 5716 5708 5701 5693 5685 5681 5675 5671 5671 5669 5665 5661 5669 5664 5667 5663 5653 5651 5659 5662 5667 5674
5863 5855 5849 5845 5838 5830 5824 5820 5817 5810 5798 5787 5779 5781 5765 5754 5748 5743 5737 5731 5721 5711 5704 5696 5687 5681 5674 5669 5664 5655 5651 5651 5648 5648 5646 5653 5647 5638 5639 5644 5652 5657 5665
5866 5857 5849 5844 5838 5831 5826 5820 5815 5809 5795 5780 5770 5757 5742 5746 5742 5742 5733 5724 5713 5705 5696 5686 5681 5674 5666 5662 5654 5646 5642 5638 5636 5636 5639 5642 5632 5625 5631 5634 5641 5650 5657
5868 5858 5848 5843 5839 5832 5825 5818 5812 5805 5793 5780 5769 5757 5747 5743 5742 5738 5729 5717 5707 5697 5687 5679 5673 5665 5657 5649 5643 5637 5634 5625 5627 5628 5629 5627 5623 5624 5622 5630 5641 5645 5651
5866 5856 5849 5844 5839 5832 5823 5814 5808 5801 5793 5782 5772 5763 5753 5747 5743 5732 5720 5709 5699 5687 5677 5671 5668 5658 5650 5639 5632 5627 5619 5616 5617 5615 5616 5614 5616 5619 5618 5627 5634 5643 5647
5862 5854 5850 5844 5838 5829 5819 5812 5804 5792 5782 5775 5768 5761 5753 5747 5733 5721 5710 5701 5690 5680 5670 5664 5657 5650 5646 5635 5626 5618 5608 5607 5606 5603 5600 5604 5608 5611 5618 5626 5636 5640 5642
5857 5851 5846 5840 5831 5821 5813 5803 5793 5782 5775 5767 5759 5746 5737 5734 5718 5706 5699 5690 5683 5677 5667 5659 5651 5645 5637 5628 5621 5613 5614 5609 5601 5592 5590 5595 5602 5606 5613 5630 5639 5638 5639
5851 5847 5843 5832 5822 5813 5804 5795 5786 5778 5769 5757 5749 5741 5738 5726 5709 5700 5691 5683 5676 5669 5663 5653 5645 5636 5628 5619 5613 5611 5611 5608 5601 5591 5583 5585 5592 5603 5612 5630 5637 5637 5639
5847 5839 5830 5824 5815 5805 5797 5791 5781 5771 5762 5757 5744 5731 5720 5715 5701 5692 5681 5679 5672 5664 5658 5652 5642 5633 5617 5612 5608 5606 5605 5603 5599 5591 5584 5583 5591 5600 5610 5623 5632 5635 5637
5839 5830 5822 5815 5808 5799 5792 5784 5777 5768 5759 5743 5729 5727 5718 5705 5689 5680 5671 5671 5667 5659 5652 5649 5634 5623 5611 5608 5603 5601 5599 5598 5596 5593 5589 5581 5588 5596 5606 5613 5620 5628 5634
5831 5821 5810 5804 5797 5787 5778 5769 5755 5747 5742 5738 5720 5719 5707 5693 5679 5668 5660 5658 5655 5649 5645 5642 5634 5617 5611 5605 5597 5597 5593 5592 5591 5595 5587 5579 5582 5588 5599 5606 5612 5619 5623
5811 5805 5799 5789 5784 5781 5762 5748 5742 5731 5722 5716 5711 5706 5701 5681 5670 5658 5649 5646 5637 5634 5633 5634 5626 5613 5606 5603 5596 5593 5594 5592 5595 5597 5588 5583 5580 5585 5590 5596 5605 5611 5617
5801 5792 5779 5786 5759 5755 5750 5740 5730 5719 5711 5702 5685 5686 5683 5673 5665 5649 5640 5636 5630 5628 5627 5622 5619 5610 5606 5604 5596 5594 5594 5592 5592 5595 5591 5584 5583 5584 5588 5592 5598 5604 5612
5789 5781 5767 5764 5752 5748 5745 5738 5734 5713 5702 5694 5689 5681 5671 5664 5663 5648 5639 5634 5627 5624 5622 5622 5619 5610 5606 5599 5599 5598 5593 5590 5589 5590 5587 5586 5585 5587 5591 5594 5595 5597 5604
5774 5768 5759 5750 5741 5732 5718 5708 5710 5698 5691 5690 5688 5679 5664 5657 5647 5640 5639 5635 5624 5617 5612 5621 5617 5611 5605 5600 5595 5594 5590 5587 5587 5588 5586 5584 5584 5582 5587 5592 5600 5600 5592
5759 5754 5745 5735 5725 5716 5703 5698 5686 5681 5676 5676 5666 5668 5654 5647 5635 5629 5621 5614 5610 5607 5611 5612 5608 5603 5597 5593 5590 5590 5587 5585 5583 5584 5583 5583 5588 5587 5585 5586 5590 5599 5597
5751 5740 5733 5722 5708 5707 5700 5690 5685 5670 5660 5660 5653 5649 5643 5633 5625 5619 5612 5607 5607 5603 5607 5602 5597 5594 5590 5587 5586 5586 5584 5581 5582 5582 5581 5582 5584 5589 5587 5586 5587 5588 5592
5733 5717 5719 5705 5705 5693 5695 5688 5678 5670 5660 5646 5638 5632 5628 5620 5615 5610 5603 5601 5607 5604 5596 5590 5587 5585 5583 5581 5578 5578 5579 5578 5578 5579 5578 5579 5582 5583 5587 5590 5586 5585 5586
5718 5710 5709 5711 5710 5698 5687 5679 5676 5665 5657 5643 5634 5618 5614 5608 5605 5601 5596 5605 5603 5597 5590 5585 5580 5578 5575 5574 5571 5571 5571 5570 5570 5571 5571 5571 5571 5576 5581 5584 5586 5584 5585
5708 5701 5703 5699 5689 5685 5682 5672 5661 5654 5646 5641 5631 5622 5612 5606 5607 5606 5603 5598 5593 5586 5580 5578 5575 5571 5570 5568 5567 5568 5569 5567 5567 5568 5569 5571 5573 5574 5571 5574 5578 5579 5584
5702 5694 5693 5692 5687 5681 5671 5665 5654 5644 5642 5640 5633 5622 5611 5613 5609 5602 5598 5590 5583 5578 5573 5571 5572 5568 5567 5564 5562 5564 5564 5562 5561 5562 5563 5566 5567 5571 5571 5571 5570 5570 5571
5697 5695 5687 5689 5684 5668 5663 5658 5650 5644 5641 5638 5631 5612 5601 5605 5599 5594 5589 5582 5575 5570 5567 5564 5565 5562 5559 5557 5556 5556 5557 5555 5554 5554 5556 5560 5561 5563 5565 5566 5567 5568 5563
5688 5685 5683 5675 5674 5662 5659 5654 5648 5645 5639 5633 5620 5606 5601 5596 5591 5590 5584 5578 5571 5565 5562 5560 5559 5557 5554 5552 5549 5546 5545 5544 5544 5546 5548 5552 5554 5552 5558 5559 5557 5559 5559
5679 5675 5671 5669 5666 5660 5648 5645 5636 5631 5632 5623 5614 5605 5598 5584 5579 5579 5578 5573 5567 5562 5558 5554 5550 5548 5546 5544 5540 5536 5530 5528 5531 5536 5536 5543 5546 5547 5550 5549 5550 5550 5552
5671 5663 5661 5659 5653 5646 5638 5635 5631 5626 5620 5614 5608 5593 5583 5574 5576 5577 5573 5566 5562 5559 5555 5550 5545 5539 5534 5531 5527 5524 5521 5522 5522 5523 5529 5537 5539 5539 5540 5542 5544 5542 5541
5652 5646 5643 5641 5638 5632 5626 5626 5622 5619 5609 5601 5594 5590 5581 5575 5572 5574 5568 5563 5559 5554 5549 5543 5537 5533 5529 5523 5517 5515 5515 5516 5517 5519 5521 5531 5532 5530 5533 5534 5535 5536 5534